Regional Weather Roundup
Issued by NWS San Angelo, TX

Home | Current Version | Previous Version | Text Only | Print | Product List | Glossary On
Versions: 1 2 3 4 5 6 7 8 9 10 11 12 13 14 15 16 17 18 19 20 21 22 23 24 25 26 27 28 29 30 31 32 33 34 35 36 37 38 39 40 41 42 43 44 45 46 47 48 49 50
623
ASUS44 KSJT 180602
RWRSJT
WEST CENTRAL TEXAS REGIONAL WEATHER ROUNDUP
NATIONAL WEATHER SERVICE SAN ANGELO TX
100 AM CDT FRI AUG 18 2017

NOTE: "FAIR" INDICATES FEW OR NO CLOUDS BELOW 12,000 FEET WITH NO
SIGNIFICANT WEATHER AND/OR OBSTRUCTIONS TO VISIBILITY.

TXZ049-054-064>066-071>073-076>078-098-099-113-114-127-128-139-140-
154-155-168>170-180700
...LOCATIONS ACROSS WEST CENTRAL TEXAS...

CITY           SKY/WX    TMP DP  RH WIND       PRES   REMARKS
SAN ANGELO     MOCLDY    74  68  81 E5        30.06F
ABILENE        CLOUDY    71  68  90 S5        30.04F
DYESS AFB      CLEAR     74  67  78 S7        30.03F
JUNCTION       PTCLDY    76  70  82 CALM      30.05F
SWEETWATER     CLEAR     73  67  81 S8        30.10F
BROWNWOOD      CLOUDY    72  72 100 CALM      30.04S
COLEMAN        CLOUDY    73  69  88 CALM      30.06S
SONORA         MOCLDY    75  70  83 CALM      30.10F
OZONA          FAIR      72  68  88 S3        30.09F
BRADY          NOT AVBL
$$

TEXAS PANHANDLE/OKLAHOMA PANHANDLE

CITY           SKY/WX    TMP DP  RH WIND       PRES   REMARKS
AMARILLO       CLEAR     72  65  78 S15       30.11R
BORGER         MOCLDY    76  64  66 E8        30.09R
CANADIAN       NOT AVBL
DALHART        CLEAR     68  63  84 SE7       30.12S
DUMAS          CLEAR     69  63  82 SE7       30.11R
GUYMON         NOT AVBL
HEREFORD       NOT AVBL
PAMPA          NOT AVBL
PERRYTON       CLOUDY    68  62  79 S7        30.09S
$$

SOUTHERN PANHANDLE/SOUTH PLAINS/ROLLING PLAINS

CITY           SKY/WX    TMP DP  RH WIND       PRES   REMARKS
LUBBOCK        PTCLDY    75  64  68 S12       30.10F
SNYDER         CLOUDY    72  68  88 S7        30.09F
CHILDRESS      CLEAR     75  68  78 S8        30.03F
SEMINOLE       MOCLDY    73  64  75 S6        30.14S
$$

PERMIAN BASIN

CITY           SKY/WX    TMP DP  RH WIND       PRES   REMARKS
MIDLAND        PTCLDY    76  65  68 S9        30.08F
ODESSA         PTCLDY    76  66  71 S8        30.10F
WINK           PTCLDY    75  66  73 SE14      30.06F
$$

FAR WEST/SOUTHWEST MOUNTAINS/TRANS PECOS

CITY           SKY/WX    TMP DP  RH WIND       PRES   REMARKS
ALPINE         MOCLDY    69  60  73 W5        30.25S
DRYDEN           N/A     76  67  73 NE7       30.04F
EL PASO        PTCLDY    81  59  47 S8        30.09R
FORT STOCKTON  CLOUDY    76  64  66 SE12      30.09F
GUADALUPE PASS NOT AVBL
MARFA          CLOUDY    64  62  93 N7        30.23F
PECOS          PTCLDY    78  62  56 SE9       30.05F
$$

DALLAS/FORT WORTH METROPLEX

CITY           SKY/WX    TMP DP  RH WIND       PRES   REMARKS
DFW AIRPORT    CLOUDY    77  71  82 CALM      29.98S
FTW MEACHAM    CLOUDY    75  71  87 CALM      29.99F
DAL-EXECUTIVE  CLOUDY    76  72  87 E3        30.00R
GRAND PRAIRIE  CLOUDY    76  69  80 CALM      30.01S
ADDISON        CLOUDY    78  69  74 CALM      30.02R
MESQUITE         N/A     76  72  88 CALM      29.99F
LANCASTER      CLOUDY    75  72  88 CALM      30.01S
$$

NORTH CENTRAL TEXAS

CITY           SKY/WX    TMP DP  RH WIND       PRES   REMARKS
SHRMAN/DENISON PTCLDY    78  75  91 SE5       30.00F
GAINESVILLE    PTCLDY    73  70  89 CALM      30.02R
BRIDGEPORT     MOCLDY    73  68  86 SE3       30.02S
DENTON         CLOUDY    73  72  96 SW5       30.00R
WAXAHACHIE     CLOUDY    74  72  93 CALM      30.02F
GRANBURY       MOCLDY    73  69  89 SW5       30.00F
$$

WESTERN NORTH TEXAS

CITY           SKY/WX    TMP DP  RH WIND       PRES   REMARKS
WICHITA FALLS  CLEAR     73  68  84 S7        29.99F
VERNON         CLEAR     75  66  72 CALM      30.02S
BRECKENRIDGE   CLOUDY    73  68  84 CALM      30.01F
COMANCHE       MOCLDY    72  69  90 CALM      30.03F
$$

CENTRAL AND SOUTH CENTRAL TEXAS

CITY           SKY/WX    TMP DP  RH WIND       PRES   REMARKS
AUSTIN/BERGSTM CLEAR     82  74  76 S8        30.02S
WACO           MOCLDY    76  70  82 SE3       30.01R
HILLSBORO      CLOUDY    74  70  89 E9        30.01F
TEMPLE         PTCLDY    78  70  76 S8        30.02R
KILLEEN-GRAY   MOCLDY    76  70  82 SE3       30.02S
FORT HOOD      MOCLDY   N/A N/A N/A S6        30.00R
GEORGETOWN     CLOUDY    81  71  71 CALM      30.04S
LAGO VISTA     FAIR      82  70  66 S7        30.05F
SAN MARCOS     CLEAR     80  72  76 S9        30.04F
NEW BRAUNFELS  CLEAR     80  73  79 S9        30.03S
RANDOLPH AFB   CLEAR     78  76  92 S8        30.05S
SAN ANTONIO    CLEAR     80  72  76 SE9       30.05S
STINSON        CLEAR     82  74  76 SE7       30.02S
PLEASANTON     NOT AVBL
LA GRANGE      CLEAR     82  76  84 S7        30.01S
GIDDINGS       CLEAR     80  73  77 S8        30.03F
$$

EAST TEXAS

CITY           SKY/WX    TMP DP  RH WIND       PRES   REMARKS
PARIS          PTCLDY    76  75  97 SE5       30.01F
CLARKSVILLE    NOT AVBL
TYLER          PTCLDY    79  78  97 CALM      30.00F
LONGVIEW       PTCLDY    79  77  94 SE5       29.99S
PALESTINE      PTCLDY    80  77  91 SE3       30.00F
NACOGDOCHES    CLEAR     80  76  87 S5        30.01S
$$

TEXAS HILL COUNTRY AND EDWARDS PLATEAU

CITY           SKY/WX    TMP DP  RH WIND       PRES   REMARKS
LLANO          PTCLDY    73  70  88 CALM      30.07S
HORSESHOE BAY  FAIR      77  70  77 CALM      30.03F
KERRVILLE      CLEAR     79  72  78 SE8       30.08S
FREDERICKSBRG  NOT AVBL
ROCKSPRINGS    NOT AVBL
HONDO          CLEAR     83  73  72 E8        30.03F
UVALDE         CLEAR     83  71  68 E9        30.03S
DEL RIO        CLOUDY    87  65  47 E13       29.97S
$$

SOUTHEAST TEXAS

CITY           SKY/WX    TMP DP  RH WIND       PRES   REMARKS
COLLEGE STN    CLEAR     80  71  74 CALM      30.02R
CALDWELL       NOT AVBL
CROCKETT       NOT AVBL
BRENHAM        CLEAR     82  74  75 S8        30.03S
HUNTSVILLE     CLEAR     82  71  69 S9        30.01F
CONROE         CLEAR     80  72  76 S3        30.02F
HOUSTON BUSH   CLEAR     83  76  79 S6        30.03S
HOUSTON HOBBY  CLEAR     83  76  79 S5        30.03S
PERLAND        CLEAR     83  76  79 CALM      30.04S
WHARTON        CLEAR     76  73  91 SE3       30.04S
$$

THE UPPER TEXAS COAST

CITY           SKY/WX    TMP DP  RH WIND       PRES   REMARKS
ORANGE         CLEAR     82  78  90 CALM      30.05S
PORT ARTHUR    CLEAR     78  76  93 S5        30.02F
GALVESTON      PTCLDY    85  79  82 S12       30.04S
ANGLETON       CLEAR     79  77  94 CALM      30.03F
BAY CITY       CLEAR     79  77  94 S5        30.03F
$$

TEXAS COASTAL BEND, RIO GRANDE PLAINS DEEP SOUTH TEXAS

CITY           SKY/WX    TMP DP  RH WIND       PRES   REMARKS
VICTORIA       CLEAR     78  75  90 S5        30.02F
BEEVILLE       FAIR     N/A N/A N/A S5        30.02F
ROCKPORT         N/A    N/A N/A N/A MISG      30.01F
PORT ARANSAS   CLEAR     82  78  88 SE9       30.01F
PORT LAVACA    CLEAR     78  75  91 S6        30.03S
CORPUS CHRISTI PTCLDY    81  79  94 SE7       30.01F
KINGSVILLE NAS CLEAR     81  80  97 SE7       30.01S
COTULLA        CLEAR     83  72  69 SE13      30.01R
LAREDO         CLEAR     85  74  69 SE13      30.00S
BROWNSVILLE    PTCLDY    81  80  97 SE6       30.02F
PORT ISABEL    PTCLDY    83  80  91 SE8       30.01F
HEBBRONVILLE   PTCLDY    79  73  80 SE9       30.04S
MCALLEN        PTCLDY    84  78  82 SE18      30.00S
WESLACO        CLEAR     82  77  84 S12G17    30.00F
FALFURRIAS     CLEAR     81  78  89 SE8       30.01S
EDINBURG       CLEAR     83  76  80 SE9       30.01S
$$




USA.gov is the U.S. government's official web portal to all federal, state and local government web resources and services.